[TLELIST] Archives

 

[TLELIST] Current TLEs

October 12th 2023 PDT

HST 1 20580U 90037B 23284.88834177 .00008905 00000-0 46212-3 0 9999 2 20580 28.4686 210.9057 0002482 203.2692 209.0727 15.14399591639423 ISS (ZARYA) 1 25544U 98067A 23285.35318479 .00022421 00000-0 39807-3 0 9991 2 25544 51.6416 108.1852 0005012 100.4182 322.7598 15.50109624419962 CXO 1 25867U 99040B 23286.94962252 .00001128 00000-0 00000-0 0 9992 2 25867 37.4219 181.6169 9043275 274.8909 0.4910 0.37818299 13620 ...Continue Reading

[TLELIST] Current TLEs

October 11th 2023 PDT

HST 1 20580U 90037B 23283.52451720 .00008739 00000-0 45367-3 0 9993 2 20580 28.4684 219.9961 0002512 187.8179 334.4279 15.14375172638956 ISS (ZARYA) 1 25544U 98067A 23284.27668525 .00022600 00000-0 40187-3 0 9993 2 25544 51.6420 113.5213 0004877 96.0949 75.9182 15.50061495419797 CXO 1 25867U 99040B 23286.94833202 .00001128 00000-0 00000-0 0 9994 2 25867 37.4219 181.6172 9043265 274.8906 0.3153 0.37818440 13626 ...Continue Reading

[TLELIST] Current TLEs

October 11th 2023 PDT

HST 1 20580U 90037B 23283.52451720 .00008739 00000-0 45367-3 0 9993 2 20580 28.4684 219.9961 0002512 187.8179 334.4279 15.14375172638956 ISS (ZARYA) 1 25544U 98067A 23284.27668525 .00022600 00000-0 40187-3 0 9993 2 25544 51.6420 113.5213 0004877 96.0949 75.9182 15.50061495419797 CXO 1 25867U 99040B 23286.94833202 .00001128 00000-0 00000-0 0 9994 2 25867 37.4219 181.6172 9043265 274.8906 0.3153 0.37818440 13626 ...Continue Reading

[TLELIST] Current TLEs

October 11th 2023 PDT

HST 1 20580U 90037B 23283.52451720 .00008739 00000-0 45367-3 0 9993 2 20580 28.4684 219.9961 0002512 187.8179 334.4279 15.14375172638956 ISS (ZARYA) 1 25544U 98067A 23284.27668525 .00022600 00000-0 40187-3 0 9993 2 25544 51.6420 113.5213 0004877 96.0949 75.9182 15.50061495419797 CXO 1 25867U 99040B 23286.94833202 .00001128 00000-0 00000-0 0 9994 2 25867 37.4219 181.6172 9043265 274.8906 0.3153 0.37818440 13626 ...Continue Reading

[TLELIST] Current TLEs

October 10th 2023 PDT

HST 1 20580U 90037B 23282.26389097 .00009092 00000-0 47264-3 0 9991 2 20580 28.4684 228.3987 0002562 173.5803 302.4121 15.14353138638767 ISS (ZARYA) 1 25544U 98067A 23283.30929993 .00020444 00000-0 36502-3 0 9995 2 25544 51.6412 118.3130 0005133 93.5711 76.7153 15.50010264419643 CXO 1 25867U 99040B 23284.30528389 .00001100 00000-0 00000-0 0 9999 2 25867 37.4084 181.9652 9046214 274.6064 0.4955 0.37814756 13618 ...Continue Reading

[TLELIST] Current TLEs

October 9th 2023 PDT

HST 1 20580U 90037B 23282.20296469 .00009015 00000-0 46857-3 0 9997 2 20580 28.4684 228.8047 0002566 173.0024 330.1787 15.14351918639023 ISS (ZARYA) 1 25544U 98067A 23282.30784722 .00020103 00000-0 35964-3 0 9996 2 25544 51.6405 123.2746 0005141 89.6288 248.8929 15.49967065419480 CXO 1 25867U 99040B 23284.30528389 .00001100 00000-0 00000-0 0 9999 2 25867 37.4084 181.9652 9046214 274.6064 0.4955 0.37814756 13618 ...Continue Reading

[TLELIST] Current TLEs

October 9th 2023 PDT

HST 1 20580U 90037B 23282.20296469 .00009015 00000-0 46857-3 0 9997 2 20580 28.4684 228.8047 0002566 173.0024 330.1787 15.14351918639023 ISS (ZARYA) 1 25544U 98067A 23282.30784722 .00020103 00000-0 35964-3 0 9996 2 25544 51.6405 123.2746 0005141 89.6288 248.8929 15.49967065419480 CXO 1 25867U 99040B 23284.30528389 .00001100 00000-0 00000-0 0 9999 2 25867 37.4084 181.9652 9046214 274.6064 0.4955 0.37814756 13618 ...Continue Reading

[TLELIST] Current TLEs

October 9th 2023 PDT

HST 1 20580U 90037B 23282.20296469 .00009015 00000-0 46857-3 0 9997 2 20580 28.4684 228.8047 0002566 173.0024 330.1787 15.14351918639023 ISS (ZARYA) 1 25544U 98067A 23282.30784722 .00020103 00000-0 35964-3 0 9996 2 25544 51.6405 123.2746 0005141 89.6288 248.8929 15.49967065419480 CXO 1 25867U 99040B 23284.30528389 .00001100 00000-0 00000-0 0 9999 2 25867 37.4084 181.9652 9046214 274.6064 0.4955 0.37814756 13618 ...Continue Reading

[TLELIST] Current TLEs

October 9th 2023 PDT

HST 1 20580U 90037B 23282.20296469 .00009015 00000-0 46857-3 0 9997 2 20580 28.4684 228.8047 0002566 173.0024 330.1787 15.14351918639023 ISS (ZARYA) 1 25544U 98067A 23282.30784722 .00020103 00000-0 35964-3 0 9996 2 25544 51.6405 123.2746 0005141 89.6288 248.8929 15.49967065419480 CXO 1 25867U 99040B 23284.30528389 .00001100 00000-0 00000-0 0 9999 2 25867 37.4084 181.9652 9046214 274.6064 0.4955 0.37814756 13618 ...Continue Reading

[TLELIST] Current TLEs

October 8th 2023 PDT

HST 1 20580U 90037B 23281.19211652 .00008653 00000-0 44963-3 0 9998 2 20580 28.4684 235.5420 0002597 162.2268 219.2084 15.14333632638868 ISS (ZARYA) 1 25544U 98067A 23281.42040407 .00020264 00000-0 36288-3 0 9991 2 25544 51.6406 127.6700 0005285 86.2261 337.2577 15.49931531419359 CXO 1 25867U 99040B 23281.65886807 .00001046 00000-0 00000-0 0 9995 2 25867 37.3943 182.3034 9047864 274.3273 0.2458 0.37808497 13612 ...Continue Reading
  • This mailing list is a public mailing list - anyone may join or leave, at any time.
  • This mailing list is announce-only.

International Space Station (ISS) / Hubble Space Telescope (HST) / Chandra X-Ray Observatory Orbital Data via EMAIL

Privacy Policy:

Private list